[[{"header":{"parameterUnit":"m.s-1","parameterCategory":1,"la1":30.2992,"la2":30.254,"lo1":-89.0895,"lo2":-89.0443,"dy":0.0025,"dx":0.0025,"nx":19,"ny":19,"refTime":"2026-03-09T03:00:00:Z","depth":0,"parameterNumber":2,"parameterNumberName":"U-component_of_WINDS"},"data":[0,0,0,-1.5542,-1.5543,-1.5559,-1.5559,-1.5588,-1.5588,0,0,0,0,0,0,0,0,0,0,0,-1.5542,-1.5542,-1.5542,-1.5543,-1.5559,-1.5559,-1.5588,-1.5588,0,0,0,0,0,0,0,0,0,0,0,-1.5542,-1.5542,-1.5543,-1.5543,-1.5559,-1.5559,-1.5588,-1.5573,0,0,0,0,0,0,0,0,0,0,-1.5556,-1.5559,-1.5542,-1.5543,-1.5543,-1.5559,-1.5559,-1.5572,-1.5574,-1.5584,0,-1.5593,0,-1.5591,-1.5591,-1.5591,0,0,0,-1.554,-1.5558,-1.5558,-1.5543,-1.5543,-1.5559,-1.5551,-1.5573,-1.5575,-1.5586,-1.5594,-1.5595,-1.5592,-1.5591,-1.5591,-1.5658,-1.5658,0,0,-1.5539,-1.5547,-1.5557,-1.556,-1.5557,-1.5551,-1.5552,-1.5574,-1.5583,-1.5594,-1.5595,-1.5592,-1.5591,-1.5591,-1.5657,-1.5658,0,0,0,-1.5538,-1.5547,-1.5546,-1.5559,-1.5561,-1.5551,-1.5552,-1.5582,-1.5581,-1.5595,-1.5593,-1.5591,-1.5592,-1.5657,-1.5657,-1.5687,0,0,0,-1.5538,-1.5546,-1.5546,-1.5552,-1.5561,-1.5572,-1.556,-1.558,-1.5582,-1.5592,-1.5591,-1.5592,-1.5656,-1.5657,-1.5685,-1.57,0,0,0,-1.5539,-1.5547,-1.555,-1.5552,-1.5559,-1.5571,-1.5571,-1.558,-1.558,-1.5591,-1.5592,-1.5656,-1.5657,-1.5684,-1.5697,-1.5719,0,0,0,-1.5544,-1.5577,-1.5551,-1.5588,-1.5559,-1.559,-1.5571,-1.5594,-1.5606,-1.5591,-1.5656,-1.5657,-1.5683,-1.5695,-1.5717,-1.5739,-1.5748,0,0,-1.5591,-1.5583,-1.5604,-1.5581,-1.5618,-1.5587,-1.5628,-1.5632,-1.5626,-1.5648,-1.5649,-1.5686,-1.5697,-1.5719,-1.5802,-1.581,0,0,0,-1.5622,-1.5637,-1.5645,-1.5657,-1.5661,-1.5665,-1.5662,-1.5663,-1.5681,-1.5639,-1.57,-1.5707,-1.5719,-1.5729,-1.5735,-1.5745,-1.5663,-1.5662,-1.5662,-1.57,-1.569,-1.5724,-1.5715,-1.5728,-1.5724,-1.5733,-1.5734,-1.5721,-1.5735,-1.5741,-1.5793,-1.5805,-1.581,-1.582,-1.5753,-1.5753,-1.5753,-1.5753,-1.5767,-1.5787,-1.5768,-1.5794,-1.5783,-1.5805,-1.5803,-1.5792,-1.5811,-1.5788,-1.5799,-1.5773,-1.5819,-1.5827,-1.5755,-1.5755,-1.5754,-1.5754,-1.5754,-1.5817,-1.5824,-1.5825,-1.5841,-1.5855,-1.5846,-1.5865,-1.5855,-1.5845,-1.5856,-1.5861,-1.586,-1.5858,-1.5859,-1.5859,-1.586,-1.586,-1.586,-1.586,-1.5867,-1.5867,-1.5884,-1.589,-1.5897,-1.5904,-1.5901,-1.5907,-1.5911,-1.5902,-1.5902,-1.5887,-1.5826,-1.581,-1.5863,-1.5862,-1.5862,-1.5862,-1.5861,-1.5937,-1.5919,-1.5945,-1.5951,-1.5958,-1.5972,-1.596,-1.5973,-1.5976,-1.5986,-1.5969,-1.5926,-1.5917,-1.5912,-1.5899,-1.5971,-1.5971,-1.5971,-1.5971,-1.5977,-1.5972,-1.5996,-1.6007,-1.6016,-1.6007,-1.6037,-1.6035,-1.603,-1.6032,-1.602,-1.6002,-1.5997,-1.5992,-1.5984,-1.5972,-1.6062,-1.6062,-1.6062,-1.602,-1.6015,-1.6042,-1.6036,-1.6041,-1.6046,-1.6073,-1.6086,-1.6077,-1.6065,-1.6032,-1.6029,-1.6,-1.5991,-1.5977,-1.5966,-1.5943,0,0]},{"header":{"parameterUnit":"m.s-1","parameterCategory":1,"la1":30.2992,"la2":30.254,"lo1":-89.0895,"lo2":-89.0443,"dy":0.0025,"dx":0.0025,"nx":19,"ny":19,"refTime":"2026-03-09T03:00:00:Z","depth":0,"parameterNumber":3,"parameterNumberName":"V-component_of_WINDS"},"data":[0,0,0,0.7753,0.7753,0.7724,0.7724,0.7687,0.7687,0,0,0,0,0,0,0,0,0,0,0,0.7761,0.776,0.7753,0.7753,0.7724,0.7724,0.7687,0.7687,0,0,0,0,0,0,0,0,0,0,0,0.7761,0.776,0.776,0.7752,0.7724,0.7724,0.7687,0.7709,0,0,0,0,0,0,0,0,0,0,0.7737,0.7742,0.776,0.776,0.7752,0.7724,0.7724,0.771,0.7708,0.77,0,0.7691,0,0.7688,0.7684,0.7684,0,0,0,0.7753,0.7744,0.7738,0.776,0.7752,0.7724,0.7737,0.7709,0.7706,0.7696,0.7691,0.7689,0.7688,0.7684,0.7684,0.7634,0.7634,0,0,0.7755,0.7755,0.7739,0.7736,0.7739,0.7738,0.7736,0.7707,0.7701,0.7691,0.7689,0.7687,0.7684,0.7683,0.7634,0.7634,0,0,0,0.7759,0.7756,0.775,0.7737,0.7732,0.7737,0.7735,0.7702,0.7701,0.7688,0.7687,0.7683,0.7683,0.7635,0.7634,0.7621,0,0,0,0.776,0.7758,0.7751,0.775,0.7733,0.7717,0.7731,0.7703,0.7699,0.7687,0.7683,0.7683,0.7635,0.7634,0.7622,0.7614,0,0,0,0.7763,0.7758,0.7754,0.775,0.7738,0.7717,0.7714,0.7702,0.7698,0.7684,0.7682,0.7635,0.7635,0.7623,0.7616,0.7602,0,0,0,0.7766,0.7741,0.7754,0.7726,0.7738,0.7709,0.7714,0.7692,0.7678,0.7683,0.7635,0.7634,0.7623,0.7617,0.7603,0.7591,0.7586,0,0,0.7734,0.7737,0.7721,0.7732,0.77,0.7713,0.7681,0.7668,0.7667,0.7645,0.7644,0.7622,0.7616,0.7603,0.7556,0.7552,0,0,0,0.7711,0.77,0.7692,0.7678,0.7669,0.7661,0.7653,0.7649,0.7631,0.7655,0.7613,0.761,0.7602,0.7596,0.7592,0.7586,0.7632,0.7632,0.7632,0.7665,0.7667,0.7641,0.7639,0.7627,0.7621,0.7612,0.7605,0.7609,0.7599,0.7592,0.7564,0.7557,0.7555,0.7548,0.7586,0.7586,0.7586,0.7586,0.762,0.7605,0.7613,0.759,0.7593,0.7574,0.7569,0.7573,0.7557,0.7568,0.7562,0.7574,0.755,0.7545,0.7585,0.7585,0.7585,0.7585,0.7585,0.759,0.7583,0.758,0.7563,0.7551,0.7551,0.7536,0.7538,0.754,0.7533,0.7528,0.7528,0.7529,0.7531,0.753,0.753,0.753,0.753,0.753,0.7561,0.7557,0.7544,0.7535,0.7528,0.752,0.7517,0.751,0.7504,0.7507,0.7507,0.7513,0.7547,0.7556,0.7529,0.7529,0.7529,0.7529,0.7529,0.7515,0.7526,0.7506,0.75,0.7491,0.7479,0.7483,0.7472,0.7467,0.746,0.7468,0.7493,0.7496,0.7499,0.7506,0.7467,0.7467,0.7467,0.7467,0.749,0.7492,0.7474,0.7465,0.7456,0.7458,0.7438,0.7436,0.7435,0.7433,0.7439,0.7449,0.7452,0.7453,0.7457,0.7464,0.7416,0.7415,0.7415,0.7463,0.7465,0.7446,0.7446,0.744,0.7435,0.7416,0.7406,0.7408,0.7413,0.7432,0.7434,0.745,0.7455,0.746,0.7466,0.7479,0,0]}]]